Simultaneous Nadir Overpasses (SNOs) Predictions

Prediction of SNOs between LANDSAT-8 and METOP-B Satellite Orbit:

Table of predicted SNOs for the next 14.0 days since TLE Epoch: 12/31/2021
Index Date (LANDSAT-8) Time (LANDSAT-8) Lat,Lon (LANDSAT-8) SZA (LANDSAT-8 ) Date (METOP-B) Time (METOP-B) Lat,Lon (METOP-B) SZA (METOP-B ) Distance(km) Time Diff (sec)
1 01/03/2022 07:50:12 -81.14, -77.39 74.21 01/03/2022 07:49:18 -81.14, -77.26 74.22 2.32 54
2 01/03/2022 08:39:38 81.15, 90.33 105.80 01/03/2022 08:39:58 81.16, 90.46 105.83 2.34 20
3 01/06/2022 03:24:27 -81.13, -11.21 74.58 01/06/2022 03:23:39 -81.13, -11.22 74.60 0.41 48
4 01/06/2022 04:13:52 81.16, 156.85 105.48 01/06/2022 04:14:18 81.16, 156.83 105.49 0.34 26
5 01/08/2022 22:58:42 -81.13, 55.31 74.96 01/08/2022 22:58:00 -81.13, 55.16 74.99 2.57 42
6 01/08/2022 23:48:07 81.16,-136.65 105.10 01/08/2022 23:48:39 81.15,-136.82 105.09 2.97 32
7 01/11/2022 18:32:57 -81.14, 121.80 75.40 01/11/2022 18:32:20 -81.14, 121.89 75.40 1.62 37
8 01/11/2022 19:22:22 81.16, -70.18 104.65 01/11/2022 19:22:59 81.16, -70.13 104.68 0.94 37
9 01/14/2022 14:07:11 -81.14,-171.74 75.90 01/14/2022 14:06:40 -81.14,-171.79 75.91 0.81 31



Historial Predications of SNOs between LANDSAT-8 and METOP-B
